FW9047 Weather Reports


Display with metric or nautical units.
time (UTC)temp
F
wind
direction
speed
MPH
gust
MPH
rain 1hr
in
rain 24hr
in
rain mn
in
humidity
%
barometer
mb
20220706063703 80 163 4.0 3.0 0.00 0.00 0.00 54 1011.8
20220706063204 80 45 5.0 6.0 0.00 0.00 0.00 54 1011.8
20220706062703 80 180 5.0 7.0 0.00 0.00 0.00 54 1011.8
20220706062203 80 135 3.0 8.0 0.00 0.00 0.00 55 1011.6
20220706061703 80 22 3.0 7.0 0.00 0.00 0.00 55 1011.6
20220706061203 79 158 2.0 6.0 0.00 0.00 0.00 56 1011.6
20220706060703 79 132 2.0 2.0 0.00 0.00 0.00 58 1011.6
20220706060203 79 22 2.0 5.0 0.00 0.00 0.00 61 1011.3
20220706055706 78 28 2.0 5.0 0.00 0.00 0.00 61 1011.3
20220706054204 78 22 2.0 5.0 0.00 0.00 0.00 63 1011.0
20220706053703 77 58 3.0 5.0 0.00 0.00 0.00 63 1011.0
20220706053203 77 338 3.0 6.0 0.00 0.00 0.00 65 1011.0
20220706052703 77 179 3.0 9.0 0.00 0.00 0.00 66 1011.0
20220706052203 77 90 3.0 5.0 0.00 0.00 0.00 65 1011.4
20220706051703 77 104 5.0 9.0 0.00 0.00 0.00 65 1011.4
20220706051204 76 45 3.0 5.0 0.00 0.00 0.00 65 1011.4
20220706050703 76 279 3.0 8.0 0.00 0.00 0.00 66 1011.4
20220706050204 76 90 3.0 5.0 0.00 0.00 0.00 68 1011.3
20220706045703 76 45 3.0 8.0 0.00 0.00 0.00 70 1011.3
20220706045203 76 45 2.0 7.0 0.00 0.00 0.00 70 1011.3
20220706044703 76 248 2.0 5.0 0.00 0.00 0.00 70 1011.3
20220706044203 76 90 2.0 3.0 0.00 0.00 0.00 68 1011.0
20220706043703 76 68 1.0 3.0 0.00 0.00 0.00 68 1011.0
20220706043203 76 68 1.0 3.0 0.00 0.00 0.00 68 1011.0
20220706042704 76 113 1.0 2.0 0.00 0.00 0.00 68 1011.0
20220706042204 76 45 1.0 2.0 0.00 0.00 0.00 68 1010.9
20220706041704 76 3 2.0 3.0 0.00 0.00 0.00 68 1010.9
20220706041203 75 90 2.0 5.0 0.00 0.00 0.00 69 1010.9
20220706040704 75 71 2.0 7.0 0.00 0.00 0.00 69 1010.9
20220706040203 75 158 2.0 5.0 0.00 0.00 0.00 69 1011.3
20220706035703 75 84 2.0 6.0 0.00 0.00 0.00 69 1011.3
20220706035203 75 22 3.0 9.0 0.00 0.00 0.00 69 1011.3
20220706034703 75 150 4.0 9.0 0.00 0.00 0.00 68 1011.3
20220706034203 75 22 5.0 9.0 0.00 0.00 0.00 68 1011.5
20220706033703 75 52 5.0 9.0 0.00 0.00 0.00 68 1011.5
20220706033203 75 68 5.0 8.0 0.00 0.00 0.00 68 1011.5
20220706032703 75 16 6.0 10.0 0.00 0.00 0.00 68 1011.5
20220706032203 76 45 6.0 8.0 0.00 0.00 0.00 68 1012.1
20220706031703 76 16 6.0 10.0 0.00 0.00 0.00 66 1012.1
20220706031203 76 0 6.0 10.0 0.00 0.00 0.00 65 1012.1
20220706030703 77 28 6.0 10.0 0.00 0.00 0.00 64 1012.1
20220706030203 77 22 6.0 13.0 0.00 0.00 0.00 64 1012.1
20220706025703 78 34 5.0 8.0 0.00 0.00 0.00 63 1012.1
20220706025203 78 68 4.0 7.0 0.00 0.00 0.00 61 1012.1
20220706024703 79 22 2.0 7.0 0.00 0.00 0.00 59 1012.1
20220706024203 79 22 0.0 2.0 0.00 0.00 0.00 55 1011.9
20220706023705 79 32 1.0 2.0 0.00 0.00 0.00 54 1011.9
20220706023203 79 180 1.0 3.0 0.00 0.00 0.00 54 1011.9
20220706022704 79 90 1.0 2.0 0.00 0.00 0.00 53 1011.9
20220706022203 79 180 2.0 2.0 0.00 0.00 0.00 53 1012.0
20220706021703 79 135 2.0 3.0 0.00 0.00 0.00 53 1012.0
20220706021203 79 158 1.0 2.0 0.00 0.00 0.00 54 1012.0
20220706020703 79 225 1.0 2.0 0.00 0.00 0.00 55 1012.0
20220706020203 79 158 2.0 2.0 0.00 0.00 0.00 56 1012.2
20220706015703 79 17 2.0 5.0 0.00 0.00 0.00 56 1012.2
20220706015203 79 158 2.0 3.0 0.00 0.00 0.00 56 1012.2
20220706014704 79 68 2.0 5.0 0.00 0.00 0.00 56 1012.2
20220706014203 79 135 2.0 3.0 0.00 0.00 0.00 55 1012.3
20220706013703 79 280 3.0 5.0 0.00 0.00 0.00 55 1012.3
20220706013204 78 180 3.0 6.0 0.00 0.00 0.00 54 1012.3
20220706012704 78 168 2.0 5.0 0.00 0.00 0.00 54 1012.3
20220706012204 78 135 2.0 3.0 0.00 0.00 0.00 54 1012.6
20220706011703 78 188 2.0 3.0 0.00 0.00 0.00 54 1012.6
20220706011203 78 22 2.0 5.0 0.00 0.00 0.00 55 1012.6
20220706010704 78 133 2.0 5.0 0.00 0.00 0.00 55 1012.6
20220706010203 78 112 2.0 5.0 0.00 0.00 0.00 56 1013.0
20220706005704 78 131 1.0 2.0 0.00 0.00 0.00 56 1013.0
20220706005204 78 270 1.0 1.0 0.00 0.00 0.00 56 1013.0
20220706004704 78 135 3.0 2.0 0.00 0.00 0.00 56 1013.0
20220706004203 78 45 3.0 6.0 0.00 0.00 0.00 56 1013.1
20220706003704 78 58 2.0 8.0 0.00 0.00 0.00 56 1013.1
20220706003203 78 90 1.0 3.0 0.00 0.00 0.00 55 1013.1
20220706002704 78 73 3.0 3.0 0.00 0.00 0.00 54 1013.1
20220706002204 78 158 3.0 5.0 0.00 0.00 0.00 55 1013.1
20220706001704 79 151 3.0 7.0 0.00 0.00 0.00 56 1013.1
20220706001203 79 225 5.0 7.0 0.00 0.00 0.00 57 1013.1
20220706000703 79 331 6.0 8.0 0.00 0.00 0.00 56 1013.1
20220706000203 79 90 7.0 9.0 0.00 0.00 0.00 57 1012.5
20220705235704 80 68 6.0 14.0 0.00 0.00 0.00 56 1012.5
20220705235204 81 22 3.0 16.0 0.00 0.00 0.00 52 1012.5
20220705234703 82 35 1.0 5.0 0.00 0.00 0.00 48 1012.5
20220705234203 82 225 2.0 3.0 0.00 0.00 0.00 48 1012.4
20220705233703 81 180 2.0 3.0 0.00 0.00 0.00 48 1012.4
20220705233203 81 180 2.0 3.0 0.00 0.00 0.00 49 1012.4
20220705232703 81 180 2.0 3.0 0.00 0.00 0.00 49 1012.4
20220705232203 81 180 2.0 3.0 0.00 0.00 0.00 50 1013.0
20220705231703 81 132 2.0 3.0 0.00 0.00 0.00 50 1013.0
20220705231204 82 180 1.0 3.0 0.00 0.00 0.00 50 1013.0
20220705230703 82 163 1.0 3.0 0.00 0.00 0.00 49 1013.0
20220705230203 82 180 1.0 1.0 0.00 0.00 0.00 49 1014.0
20220705225703 82 180 2.0 3.0 0.00 0.00 0.00 49 1014.0
20220705225204 82 135 1.0 3.0 0.00 0.00 0.00 50 1014.0
20220705224704 82 15 2.0 2.0 0.00 0.00 0.00 50 1014.0
20220705224204 82 90 2.0 2.0 0.00 0.00 0.00 50 1014.4
20220705223703 82 75 2.0 3.0 0.00 0.00 0.00 50 1014.4
20220705223203 82 68 2.0 5.0 0.00 0.00 0.00 50 1014.4
20220705222704 82 93 1.0 2.0 0.00 0.00 0.00 50 1014.4
20220705222203 82 180 2.0 3.0 0.00 0.00 0.00 50 1014.4
20220705221705 82 248 2.0 3.0 0.00 0.00 0.00 50 1014.4
20220705221204 82 68 3.0 6.0 0.00 0.00 0.00 49 1014.4
20220705220703 82 41 3.0 7.0 0.00 0.00 0.00 49 1014.4
20220705220203 82 90 3.0 7.0 0.00 0.00 0.00 49 1014.2
20220705215704 82 359 3.0 6.0 0.00 0.00 0.00 49 1014.2
20220705215204 83 180 5.0 3.0 0.00 0.00 0.00 49 1014.2
20220705214703 83 292 5.0 7.0 0.00 0.00 0.00 48 1014.2
20220705214204 83 112 3.0 7.0 0.00 0.00 0.00 48 1014.0
20220705213703 83 338 5.0 6.0 0.00 0.00 0.00 47 1014.0
20220705213204 83 45 4.0 7.0 0.00 0.00 0.00 49 1014.0
20220705212703 83 119 3.0 10.0 0.00 0.00 0.00 49 1014.0
20220705211703 83 196 1.0 3.0 0.00 0.00 0.00 46 1013.4
20220705211203 83 22 0.0 2.0 0.00 0.00 0.00 46 1013.4
20220705210704 83 142 0.0 2.0 0.00 0.00 0.00 45 1013.4
20220705210203 83 158 0.0 1.0 0.00 0.00 0.00 45 1013.3
20220705205704 83 158 0.0 2.0 0.00 0.00 0.00 45 1013.3
20220705205204 83 180 0.0 2.0 0.00 0.00 0.00 45 1013.3
20220705204704 83 176 0.0 2.0 0.00 0.00 0.00 45 1013.3
20220705204204 83 202 1.0 2.0 0.00 0.00 0.00 45 1013.4
20220705203704 84 180 1.0 2.0 0.00 0.00 0.00 45 1013.4
20220705203203 84 248 1.0 2.0 0.00 0.00 0.00 45 1013.4
20220705202704 84 162 0.0 1.0 0.00 0.00 0.00 45 1013.4
20220705202203 84 135 1.0 1.0 0.00 0.00 0.00 45 1013.3
20220705201703 84 190 1.0 2.0 0.00 0.00 0.00 44 1013.3
20220705201204 84 225 1.0 2.0 0.00 0.00 0.00 44 1013.3
20220705200703 84 252 0.0 2.0 0.00 0.00 0.00 43 1013.3
20220705200204 84 112 0.0 1.0 0.00 0.00 0.00 43 1013.4
20220705195703 84 25 0.0 0.0 0.00 0.00 0.00 44 1013.4
20220705195204 84 135 0.0 2.0 0.00 0.00 0.00 44 1013.4
20220705194703 85 13 0.0 2.0 0.00 0.00 0.00 44 1013.4
20220705194204 85 292 0.0 2.0 0.00 0.00 0.00 44 1013.6
20220705193703 85 135 0.0 0.0 0.00 0.00 0.00 45 1013.6
20220705193204 85 68 0.0 0.0 0.00 0.00 0.00 45 1013.6
20220705192703 85 119 0.0 1.0 0.00 0.00 0.00 46 1013.6
20220705192204 85 68 0.0 0.0 0.00 0.00 0.00 45 1013.6
20220705191704 85 297 1.0 2.0 0.00 0.00 0.00 45 1013.6
20220705191203 85 270 2.0 2.0 0.00 0.00 0.00 45 1013.6
20220705190704 85 270 2.0 6.0 0.00 0.00 0.00 45 1013.6
20220705190204 85 292 2.0 6.0 0.00 0.00 0.00 45 1013.3
20220705185703 86 288 1.0 3.0 0.00 0.00 0.00 45 1013.3
20220705185204 86 338 1.0 3.0 0.00 0.00 0.00 45 1013.3
20220705184704 86 54 1.0 5.0 0.00 0.00 0.00 45 1013.3
20220705184203 86 338 1.0 5.0 0.00 0.00 0.00 45 1013.2
20220705183704 86 263 1.0 2.0 0.00 0.00 0.00 45 1013.2
20220705183203 86 0 0.0 2.0 0.00 0.00 0.00 45 1013.2
20220705182704 87 6 0.0 1.0 0.00 0.00 0.00 45 1013.2
20220705182204 87 248 1.0 0.0 0.00 0.00 0.00 44 1013.3
20220705181704 87 94 1.0 2.0 0.00 0.00 0.00 44 1013.3
20220705181204 87 292 1.0 3.0 0.00 0.00 0.00 43 1013.3
20220705180704 87 292 1.0 3.0 0.00 0.00 0.00 43 1013.3
20220705180204 87 292 1.0 2.0 0.00 0.00 0.00 43 1013.3
20220705175704 88 202 2.0 5.0 0.00 0.00 0.00 43 1013.3
20220705175203 88 292 2.0 5.0 0.00 0.00 0.00 43 1013.3
20220705174704 88 292 2.0 3.0 0.00 0.00 0.00 43 1013.3
20220705174203 88 22 2.0 3.0 0.00 0.00 0.00 42 1013.3
20220705173704 89 292 2.0 7.0 0.00 0.00 0.00 43 1013.3
20220705173204 89 292 2.0 6.0 0.00 0.00 0.00 42 1013.3
20220705172704 89 282 2.0 6.0 0.00 0.00 0.00 42 1013.3
20220705172204 90 22 2.0 6.0 0.00 0.00 0.00 42 1013.3
20220705171704 90 338 2.0 8.0 0.00 0.00 0.00 42 1013.3
20220705171204 90 292 2.0 8.0 0.00 0.00 0.00 42 1013.3
20220705170704 90 292 2.0 5.0 0.00 0.00 0.00 42 1013.3
20220705170203 91 338 2.0 6.0 0.00 0.00 0.00 42 1013.1
20220705165704 91 342 3.0 8.0 0.00 0.00 0.00 42 1013.1
20220705165204 91 0 4.0 7.0 0.00 0.00 0.00 42 1013.1
20220705164704 91 341 3.0 6.0 0.00 0.00 0.00 42 1013.1
20220705164202 92 338 2.0 6.0 0.00 0.00 0.00 40 1012.9
20220705163702 92 322 2.0 3.0 0.00 0.00 0.00 40 1012.9
20220705163202 92 315 3.0 6.0 0.00 0.00 0.00 41 1012.9
20220705162702 92 0 3.0 6.0 0.00 0.00 0.00 40 1012.9
20220705162203 92 0 2.0 6.0 0.00 0.00 0.00 40 1012.9
20220705161703 92 330 3.0 6.0 0.00 0.00 0.00 40 1012.9
20220705161202 91 292 3.0 5.0 0.00 0.00 0.00 40 1012.9
20220705160703 91 310 3.0 7.0 0.00 0.00 0.00 40 1012.9
20220705160203 92 0 3.0 7.0 0.00 0.00 0.00 41 1012.9
20220705155702 92 341 3.0 8.0 0.00 0.00 0.00 39 1012.9
20220705155202 92 338 3.0 6.0 0.00 0.00 0.00 39 1012.9
20220705154702 91 341 4.0 6.0 0.00 0.00 0.00 41 1012.9
20220705154202 91 292 5.0 6.0 0.00 0.00 0.00 40 1012.9
20220705153703 91 354 4.0 7.0 0.00 0.00 0.00 40 1012.9
20220705153203 91 0 5.0 7.0 0.00 0.00 0.00 40 1012.9
20220705152702 91 18 6.0 8.0 0.00 0.00 0.00 41 1012.9
20220705152202 91 0 6.0 9.0 0.00 0.00 0.00 41 1013.1
20220705151702 91 355 6.0 9.0 0.00 0.00 0.00 41 1013.1
20220705151203 91 0 6.0 9.0 0.00 0.00 0.00 41 1013.1
20220705150702 91 343 6.0 8.0 0.00 0.00 0.00 41 1013.1
20220705145702 91 350 5.0 6.0 0.00 0.00 0.00 40 1013.1
20220705145203 91 315 6.0 8.0 0.00 0.00 0.00 40 1013.1
20220705144703 91 355 6.0 9.0 0.00 0.00 0.00 40 1013.1
20220705144202 91 338 6.0 8.0 0.00 0.00 0.00 38 1013.1
20220705143702 91 346 5.0 8.0 0.00 0.00 0.00 38 1013.1
20220705143202 91 0 6.0 7.0 0.00 0.00 0.00 38 1013.1
20220705142703 91 13 6.0 12.0 0.00 0.00 0.00 38 1013.1
20220705142203 91 22 6.0 9.0 0.00 0.00 0.00 40 1013.2
20220705141703 91 7 6.0 10.0 0.00 0.00 0.00 40 1013.2
20220705141202 91 338 6.0 8.0 0.00 0.00 0.00 41 1013.2
20220705140703 91 329 6.0 10.0 0.00 0.00 0.00 41 1013.2
20220705140203 91 338 5.0 8.0 0.00 0.00 0.00 40 1013.3
20220705135702 91 342 3.0 8.0 0.00 0.00 0.00 40 1013.3
20220705135202 91 292 5.0 8.0 0.00 0.00 0.00 41 1013.3
20220705134702 90 14 6.0 8.0 0.00 0.00 0.00 42 1013.3
20220705134202 90 0 6.0 7.0 0.00 0.00 0.00 44 1013.8
20220705133703 90 18 6.0 8.0 0.00 0.00 0.00 42 1013.8
20220705133202 90 315 6.0 8.0 0.00 0.00 0.00 42 1013.8
20220705132702 91 338 5.0 9.0 0.00 0.00 0.00 41 1013.8
20220705132203 90 0 5.0 8.0 0.00 0.00 0.00 42 1013.8
20220705131703 90 322 6.0 7.0 0.00 0.00 0.00 42 1013.8
20220705131202 90 22 5.0 7.0 0.00 0.00 0.00 45 1013.8
20220705130702 90 22 5.0 7.0 0.00 0.00 0.00 45 1013.8
20220705125703 89 0 5.0 9.0 0.00 0.00 0.00 47 1014.0
20220705125203 89 315 7.0 9.0 0.00 0.00 0.00 46 1014.0
20220705124703 89 353 7.0 9.0 0.00 0.00 0.00 47 1014.0
20220705124202 89 338 6.0 8.0 0.00 0.00 0.00 46 1014.0
20220705123702 89 3 6.0 8.0 0.00 0.00 0.00 46 1014.0
20220705123202 89 22 6.0 7.0 0.00 0.00 0.00 45 1014.0
20220705122703 88 14 7.0 12.0 0.00 0.00 0.00 46 1014.0
20220705122203 88 315 7.0 10.0 0.00 0.00 0.00 46 1014.1
20220705121703 88 340 7.0 10.0 0.00 0.00 0.00 45 1014.1
20220705121203 88 338 7.0 10.0 0.00 0.00 0.00 46 1014.1
20220705120703 88 340 6.0 10.0 0.00 0.00 0.00 45 1014.1
20220705120203 88 22 6.0 7.0 0.00 0.00 0.00 46 1014.2
20220705115703 88 338 7.0 9.0 0.00 0.00 0.00 45 1014.2
20220705115202 88 0 7.0 9.0 0.00 0.00 0.00 45 1014.2
20220705114703 88 340 7.0 12.0 0.00 0.00 0.00 46 1014.2
20220705114203 88 292 7.0 9.0 0.00 0.00 0.00 46 1014.4
20220705113703 88 18 7.0 9.0 0.00 0.00 0.00 44 1014.4
20220705113203 87 68 7.0 8.0 0.00 0.00 0.00 47 1014.4
20220705112703 87 314 7.0 8.0 0.00 0.00 0.00 46 1014.4
20220705112203 87 338 6.0 9.0 0.00 0.00 0.00 47 1014.4
20220705111703 87 339 6.0 7.0 0.00 0.00 0.00 48 1014.4
20220705111203 87 225 7.0 9.0 0.00 0.00 0.00 50 1014.4
20220705110703 87 339 7.0 12.0 0.00 0.00 0.00 50 1014.4
20220705110202 87 0 7.0 12.0 0.00 0.00 0.00 51 1014.2
20220705105703 87 2 7.0 8.0 0.00 0.00 0.00 51 1014.2
20220705105202 86 338 7.0 9.0 0.00 0.00 0.00 51 1014.2
20220705104702 87 0 6.0 8.0 0.00 0.00 0.00 50 1014.2
20220705104203 87 0 7.0 7.0 0.00 0.00 0.00 49 1014.1
20220705103703 87 0 6.0 9.0 0.00 0.00 0.00 47 1014.1
20220705103202 87 338 5.0 5.0 0.00 0.00 0.00 44 1014.1
20220705102703 87 0 5.0 7.0 0.00 0.00 0.00 45 1014.1
20220705102203 87 0 4.0 7.0 0.00 0.00 0.00 42 1014.1
20220705101702 87 57 2.0 3.0 0.00 0.00 0.00 43 1014.1
20220705101202 86 45 5.0 3.0 0.00 0.00 0.00 45 1014.1
20220705100703 86 45 5.0 8.0 0.00 0.00 0.00 45 1014.1
20220705100202 85 315 5.0 7.0 0.00 0.00 0.00 45 1014.3
20220705095703 85 19 5.0 6.0 0.00 0.00 0.00 43 1014.3
20220705095203 85 0 5.0 6.0 0.00 0.00 0.00 49 1014.3
20220705094703 85 0 5.0 7.0 0.00 0.00 0.00 50 1014.3
20220705094203 85 45 5.0 7.0 0.00 0.00 0.00 50 1014.3
20220705093703 84 338 5.0 7.0 0.00 0.00 0.00 50 1014.3
20220705093202 84 22 5.0 7.0 0.00 0.00 0.00 51 1014.3
20220705092703 84 0 5.0 7.0 0.00 0.00 0.00 51 1014.3
20220705092202 84 0 5.0 8.0 0.00 0.00 0.00 53 1014.5
20220705091703 84 338 5.0 7.0 0.00 0.00 0.00 53 1014.5
20220705090703 84 22 3.0 6.0 0.00 0.00 0.00 53 1014.5
20220705090202 84 338 3.0 5.0 0.00 0.00 0.00 54 1014.4
20220705085703 83 22 3.0 5.0 0.00 0.00 0.00 52 1014.4
20220705085202 83 45 3.0 5.0 0.00 0.00 0.00 53 1014.4
20220705084703 83 18 3.0 7.0 0.00 0.00 0.00 56 1014.4
20220705084203 83 22 3.0 5.0 0.00 0.00 0.00 54 1014.6
20220705083702 82 0 2.0 5.0 0.00 0.00 0.00 57 1014.6
20220705083203 82 45 2.0 5.0 0.00 0.00 0.00 58 1014.6
20220705082703 82 64 3.0 6.0 0.00 0.00 0.00 59 1014.6
20220705082203 82 248 3.0 6.0 0.00 0.00 0.00 60 1014.6
20220705081703 81 334 2.0 5.0 0.00 0.00 0.00 61 1014.6
20220705081202 81 135 2.0 7.0 0.00 0.00 0.00 61 1014.6
20220705080703 81 138 2.0 7.0 0.00 0.00 0.00 61 1014.6
20220705080203 81 292 2.0 7.0 0.00 0.00 0.00 61 1014.6
20220705075703 80 21 2.0 5.0 0.00 0.00 0.00 62 1014.6
20220705075202 80 270 3.0 5.0 0.00 0.00 0.00 61 1014.6
20220705074703 80 359 3.0 5.0 0.00 0.00 0.00 61 1014.6
20220705074203 80 22 3.0 5.0 0.00 0.00 0.00 61 1014.3
20220705073702 80 22 3.0 7.0 0.00 0.00 0.00 61 1014.3
20220705073203 80 0 3.0 6.0 0.00 0.00 0.00 61 1014.3
20220705072703 80 339 3.0 5.0 0.00 0.00 0.00 61 1014.3
20220705072203 80 0 3.0 6.0 0.00 0.00 0.00 61 1014.3
20220705071703 80 358 3.0 5.0 0.00 0.00 0.00 60 1014.3
20220705071203 80 0 2.0 5.0 0.00 0.00 0.00 60 1014.3
20220705070703 80 0 2.0 5.0 0.00 0.00 0.00 60 1014.3
20220705070203 80 316 2.0 5.0 0.00 0.00 0.00 60 1014.4
20220705065703 80 45 2.0 5.0 0.00 0.00 0.00 60 1014.4
20220705065203 80 0 1.0 5.0 0.00 0.00 0.00 60 1014.4
20220705064703 79 22 0.0 1.0 0.00 0.00 0.00 61 1014.4
20220705064202 79 22 0.0 0.0 0.00 0.00 0.00 60 1014.5